When you browse on this site, cookies collect data to enhance your experience and personalize the content and advertising you see.
Visit our Privacy Policy to learn more. By continuing to use the site, you agree to this use of cookies and data.
  • In Netherlands
  • List of Countries
  • For 7 days
  • Water Temperature
  • Satellite Maps
  • Weather Map
  • Weather Widgets
  • user-avatar
    Login

    Hourly Weather São Paulo

    Today, 27 May, Monday

    Time Temperature Precipitation Wind Pressure Humidity
    00:00 +18°C° 0 mm 1 mps 700 mmHg 89%
    01:00 +16°C° 0 mm 1 mps 700 mmHg 88%
    02:00 +16°C° 0 mm 1 mps 700 mmHg 86%
    03:00 +16°C° 0 mm 1 mps 700 mmHg 85%
    04:00 +15°C° 0 mm 1 mps 700 mmHg 81%
    05:00 +15°C° 0 mm 1 mps 700 mmHg 78%
    06:00 +15°C° 0 mm 1 mps 699 mmHg 75%
    07:00 +16°C° 0 mm 1 mps 700 mmHg 67%
    08:00 +18°C° 0 mm 2 mps 700 mmHg 60%
    09:00 +19°C° 0 mm 2 mps 701 mmHg 53%
    10:00 +21°C° 0 mm 2 mps 701 mmHg 46%
    11:00 +24°C° 0 mm 2 mps 701 mmHg 40%
    12:00 +27°C° 0 mm 2 mps 701 mmHg 33%
    13:00 +27°C° 0 mm 3 mps 701 mmHg 33%
    14:00 +27°C° 0 mm 3 mps 700 mmHg 33%
    15:00 +28°C° 0 mm 3 mps 700 mmHg 33%
    16:00 +26°C° 0 mm 2 mps 699 mmHg 39%
    17:00 +24°C° 0 mm 2 mps 699 mmHg 45%
    18:00 +23°C° 0 mm 2 mps 699 mmHg 50%
    19:00 +21°C° 0 mm 2 mps 699 mmHg 53%
    20:00 +20°C° 0 mm 2 mps 700 mmHg 56%
    21:00 +20°C° 0 mm 2 mps 700 mmHg 59%
    22:00 +19°C° 0 mm 2 mps 700 mmHg 62%
    23:00 +19°C° 0 mm 2 mps 700 mmHg 65%

    Tomorrow, 28 May, Tuesday

    Time Temperature Precipitation Wind Pressure Humidity
    00:00 +18°C° 0 mm 2 mps 699 mmHg 67%
    01:00 +18°C° 0 mm 2 mps 699 mmHg 67%
    02:00 +18°C° 0 mm 3 mps 699 mmHg 67%
    03:00 +18°C° 0 mm 3 mps 698 mmHg 67%
    04:00 +18°C° 0 mm 3 mps 698 mmHg 66%
    05:00 +18°C° 0 mm 3 mps 698 mmHg 65%
    06:00 +18°C° 0 mm 3 mps 698 mmHg 64%
    07:00 +19°C° 0 mm 3 mps 699 mmHg 61%
    08:00 +21°C° 0 mm 4 mps 699 mmHg 58%
    09:00 +22°C° 0 mm 4 mps 700 mmHg 55%
    10:00 +25°C° 0 mm 5 mps 700 mmHg 53%
    11:00 +27°C° 0 mm 5 mps 700 mmHg 50%
    12:00 +28°C° 0 mm 5 mps 700 mmHg 47%
    13:00 +29°C° 0 mm 5 mps 700 mmHg 47%
    14:00 +29°C° 0 mm 5 mps 699 mmHg 48%
    15:00 +29°C° 0 mm 5 mps 699 mmHg 48%
    16:00 +28°C° 0 mm 4 mps 699 mmHg 54%
    17:00 +26°C° 0 mm 3 mps 699 mmHg 61%
    18:00 +25°C° 0 mm 2 mps 699 mmHg 67%
    19:00 +25°C° 0 mm 2 mps 699 mmHg 69%
    20:00 +24°C° 0 mm 2 mps 699 mmHg 71%
    21:00 +24°C° 0 mm 3 mps 699 mmHg 73%
    22:00 +22°C° 0 mm 3 mps 699 mmHg 73%
    23:00 +22°C° 0 mm 3 mps 699 mmHg 73%

    Day after tomorrow, 29 May, Wednesday

    Time Temperature Precipitation Wind Pressure Humidity
    00:00 +22°C° 0 mm 4 mps 699 mmHg 73%
    01:00 +22°C° 0 mm 3 mps 699 mmHg 75%
    02:00 +22°C° 0 mm 3 mps 699 mmHg 76%
    03:00 +21°C° 0 mm 3 mps 698 mmHg 77%
    04:00 +21°C° 0.1 mm 2 mps 699 mmHg 79%
    05:00 +21°C° 0.1 mm 2 mps 699 mmHg 80%
    06:00 +21°C° 0.1 mm 2 mps 699 mmHg 81%
    07:00 +23°C° 0 mm 2 mps 700 mmHg 78%
    08:00 +24°C° 0 mm 3 mps 700 mmHg 74%
    09:00 +25°C° 0 mm 3 mps 700 mmHg 71%
    10:00 +26°C° 0.5 mm 3 mps 700 mmHg 67%
    11:00 +27°C° 0.5 mm 3 mps 700 mmHg 63%
    12:00 +28°C° 0.5 mm 3 mps 700 mmHg 59%
    13:00 +28°C° 0.6 mm 3 mps 700 mmHg 61%
    14:00 +28°C° 0.6 mm 2 mps 699 mmHg 62%
    15:00 +27°C° 0.6 mm 2 mps 699 mmHg 63%
    16:00 +26°C° 0.3 mm 2 mps 699 mmHg 67%
    17:00 +25°C° 0.3 mm 1 mps 699 mmHg 71%
    18:00 +24°C° 0.3 mm 1 mps 699 mmHg 75%
    19:00 +24°C° 0 mm 1 mps 699 mmHg 78%
    20:00 +21°C° 0 mm 0 mps 699 mmHg 81%
    21:00 +21°C° 0 mm 0 mps 699 mmHg 83%
    22:00 +20°C° 0 mm 0 mps 699 mmHg 84%
    23:00 +20°C° 0 mm 0 mps 699 mmHg 84%

    30 May, Thursday

    Time Temperature Precipitation Wind Pressure Humidity
    00:00 +20°C° 0 mm 0 mps 699 mmHg 85%
    01:00 +19°C° 0 mm 0 mps 699 mmHg 85%
    02:00 +19°C° 0 mm 0 mps 698 mmHg 85%
    03:00 +21°C° 0 mm 1 mps 698 mmHg 84%
    04:00 +21°C° 0 mm 1 mps 698 mmHg 84%
    05:00 +21°C° 0 mm 1 mps 698 mmHg 84%
    06:00 +21°C° 0 mm 1 mps 698 mmHg 84%
    07:00 +21°C° 0 mm 2 mps 698 mmHg 81%
    08:00 +23°C° 0 mm 2 mps 699 mmHg 77%
    09:00 +24°C° 0 mm 2 mps 699 mmHg 74%
    10:00 +26°C° 0 mm 3 mps 699 mmHg 67%
    11:00 +27°C° 0 mm 4 mps 699 mmHg 60%
    12:00 +29°C° 0 mm 4 mps 699 mmHg 52%
    13:00 +29°C° 0 mm 5 mps 698 mmHg 52%
    14:00 +29°C° 0 mm 5 mps 697 mmHg 52%
    15:00 +29°C° 0 mm 5 mps 696 mmHg 51%
    16:00 +28°C° 0 mm 5 mps 696 mmHg 57%
    17:00 +27°C° 0 mm 4 mps 696 mmHg 62%
    18:00 +26°C° 0 mm 4 mps 696 mmHg 67%
    19:00 +26°C° 0 mm 4 mps 696 mmHg 69%
    20:00 +25°C° 0 mm 5 mps 697 mmHg 70%
    21:00 +25°C° 0 mm 5 mps 697 mmHg 71%
    22:00 +25°C° 0 mm 5 mps 697 mmHg 72%
    23:00 +23°C° 0 mm 5 mps 697 mmHg 73%

    31 May, Friday

    Time Temperature Precipitation Wind Pressure Humidity
    00:00 +23°C° 0 mm 5 mps 697 mmHg 74%
    01:00 +23°C° 0 mm 5 mps 697 mmHg 75%
    02:00 +22°C° 0 mm 5 mps 696 mmHg 75%
    03:00 +22°C° 0 mm 4 mps 696 mmHg 76%
    04:00 +22°C° 0 mm 4 mps 697 mmHg 78%
    05:00 +21°C° 0 mm 4 mps 697 mmHg 79%
    06:00 +21°C° 0 mm 3 mps 697 mmHg 81%
    07:00 +22°C° 0 mm 3 mps 698 mmHg 77%
    08:00 +24°C° 0 mm 3 mps 698 mmHg 73%
    09:00 +25°C° 0 mm 3 mps 699 mmHg 70%
    10:00 +26°C° 0 mm 3 mps 699 mmHg 66%
    11:00 +27°C° 0 mm 3 mps 699 mmHg 62%
    12:00 +28°C° 0 mm 3 mps 699 mmHg 57%
    13:00 +28°C° 0.2 mm 3 mps 698 mmHg 59%
    14:00 +28°C° 0.2 mm 3 mps 698 mmHg 60%
    15:00 +28°C° 0.2 mm 3 mps 697 mmHg 61%
    16:00 +27°C° 0.2 mm 2 mps 697 mmHg 65%
    17:00 +26°C° 0.2 mm 2 mps 697 mmHg 70%
    18:00 +25°C° 0.2 mm 1 mps 698 mmHg 74%
    19:00 +24°C° 0.2 mm 1 mps 698 mmHg 77%
    20:00 +24°C° 0.2 mm 1 mps 698 mmHg 79%
    21:00 +23°C° 0.2 mm 1 mps 698 mmHg 82%
    22:00 +23°C° 0.1 mm 1 mps 698 mmHg 83%
    23:00 +20°C° 0.1 mm 0 mps 698 mmHg 84%

    1 June, Saturday

    Time Temperature Precipitation Wind Pressure Humidity
    00:00 +20°C° 0.1 mm 0 mps 698 mmHg 85%
    01:00 +22°C° 0.1 mm 1 mps 698 mmHg 85%
    02:00 +22°C° 0.1 mm 1 mps 697 mmHg 85%
    03:00 +22°C° 0.1 mm 1 mps 697 mmHg 85%
    04:00 +22°C° 0.1 mm 1 mps 697 mmHg 85%
    05:00 +22°C° 0.1 mm 1 mps 697 mmHg 85%
    06:00 +22°C° 0.1 mm 1 mps 697 mmHg 85%
    07:00 +23°C° 0 mm 2 mps 698 mmHg 81%
    08:00 +24°C° 0 mm 2 mps 698 mmHg 78%
    09:00 +25°C° 0 mm 3 mps 699 mmHg 74%
    10:00 +26°C° 0 mm 4 mps 699 mmHg 66%
    11:00 +28°C° 0 mm 4 mps 699 mmHg 58%
    12:00 +29°C° 0 mm 5 mps 698 mmHg 50%
    13:00 +29°C° 0 mm 5 mps 698 mmHg 49%
    14:00 +29°C° 0 mm 5 mps 698 mmHg 48%
    15:00 +30°C° 0 mm 5 mps 697 mmHg 47%
    16:00 +28°C° 0.1 mm 5 mps 697 mmHg 53%
    17:00 +27°C° 0.1 mm 4 mps 697 mmHg 59%
    18:00 +26°C° 0.1 mm 4 mps 697 mmHg 65%
    19:00 +25°C° 0 mm 4 mps 697 mmHg 67%
    20:00 +25°C° 0 mm 4 mps 698 mmHg 68%
    21:00 +23°C° 0 mm 5 mps 698 mmHg 70%
    22:00 +23°C° 0 mm 4 mps 698 mmHg 71%
    23:00 +23°C° 0 mm 4 mps 697 mmHg 72%
    Show more